| time (UTC) | temp C | wind direction | speed KPH | gust KPH | rain 1hr cm | rain 24hr cm | rain mn cm | humidity % | barometer mb |
| 20260503045004 | 8 | 318 | 3.2 | 8.0 | 0.00 | 1.09 | 0.00 | 93 | 1009.0 |
| 20260503044503 | 8 | 317 | 4.8 | 8.0 | 0.00 | 1.09 | 0.00 | 92 | 1009.1 |
| 20260503044004 | 8 | 253 | 0.0 | 4.8 | 0.00 | 1.09 | 0.00 | 92 | 1009.1 |
| 20260503043503 | 8 | 252 | 0.0 | 0.0 | 0.00 | 1.09 | 0.00 | 92 | 1009.1 |
| 20260503043003 | 8 | 252 | 0.0 | 0.0 | 0.00 | 1.09 | 0.00 | 93 | 1009.1 |
| 20260503042503 | 8 | 229 | 0.0 | 0.0 | 0.00 | 1.09 | 0.00 | 93 | 1009.1 |
| 20260503042005 | 8 | 229 | 0.0 | 0.0 | 0.00 | 1.09 | 0.00 | 92 | 1009.0 |
| 20260503041503 | 8 | 229 | 0.0 | 0.0 | 0.00 | 1.09 | 0.00 | 92 | 1009.1 |
| 20260503041004 | 8 | 229 | 0.0 | 0.0 | 0.00 | 1.09 | 0.00 | 92 | 1009.1 |
| 20260503035503 | 8 | 229 | 0.0 | 0.0 | 0.00 | 1.09 | 0.00 | 92 | 1009.0 |
| 20260503035004 | 8 | 229 | 0.0 | 0.0 | 0.00 | 1.09 | 0.00 | 92 | 1009.0 |
| 20260503034503 | 8 | 229 | 0.0 | 0.0 | 0.00 | 1.09 | 0.00 | 92 | 1009.0 |
| 20260503033504 | 9 | 229 | 0.0 | 0.0 | 0.00 | 1.09 | 0.00 | 92 | 1009.1 |
| 20260503033004 | 9 | 229 | 0.0 | 0.0 | 0.00 | 1.09 | 0.00 | 92 | 1009.1 |
| 20260503032504 | 9 | 229 | 0.0 | 0.0 | 0.00 | 1.09 | 0.00 | 92 | 1009.1 |
| 20260503031503 | 10 | 229 | 0.0 | 0.0 | 0.00 | 1.09 | 0.00 | 92 | 1009.3 |
| 20260503031004 | 10 | 229 | 0.0 | 1.6 | 0.00 | 1.09 | 0.00 | 92 | 1009.4 |
| 20260503030504 | 10 | 229 | 0.0 | 0.0 | 0.00 | 1.09 | 0.00 | 93 | 1009.4 |
| 20260503030004 | 10 | 229 | 1.6 | 3.2 | 0.00 | 1.09 | 0.00 | 93 | 1009.4 |
| 20260503025503 | 10 | 229 | 3.2 | 4.8 | 0.00 | 1.09 | 0.00 | 92 | 1009.3 |
| 20260503025003 | 10 | 229 | 3.2 | 4.8 | 0.00 | 1.09 | 0.00 | 92 | 1009.3 |
| 20260503024503 | 10 | 228 | 4.8 | 8.0 | 0.00 | 1.09 | 0.00 | 92 | 1009.2 |
| 20260503024003 | 10 | 220 | 3.2 | 4.8 | 0.00 | 1.09 | 0.00 | 93 | 1009.3 |
| 20260503023504 | 10 | 219 | 3.2 | 9.7 | 0.00 | 1.09 | 0.00 | 93 | 1009.3 |
| 20260503023005 | 10 | 219 | 4.8 | 9.7 | 0.00 | 1.09 | 0.00 | 92 | 1009.3 |
| 20260503022504 | 10 | 219 | 3.2 | 9.7 | 0.00 | 1.09 | 0.00 | 93 | 1009.2 |
| 20260503022004 | 10 | 236 | 3.2 | 8.0 | 0.00 | 1.09 | 0.00 | 93 | 1009.3 |
| 20260503021503 | 10 | 242 | 1.6 | 4.8 | 0.00 | 1.09 | 0.00 | 93 | 1009.4 |
| 20260503020504 | 10 | 242 | 3.2 | 4.8 | 0.00 | 1.09 | 0.00 | 92 | 1009.3 |
| 20260503020003 | 10 | 240 | 3.2 | 4.8 | 0.00 | 1.09 | 0.00 | 92 | 1009.4 |
| 20260503015005 | 10 | 275 | 0.0 | 3.2 | 0.00 | 1.09 | 0.00 | 92 | 1009.4 |
| 20260503013004 | 10 | 244 | 0.0 | 0.0 | 0.00 | 1.09 | 0.00 | 92 | 1009.6 |
| 20260503012503 | 10 | 244 | 0.0 | 3.2 | 0.00 | 1.09 | 0.00 | 92 | 1009.6 |
| 20260503011504 | 10 | 244 | 1.6 | 4.8 | 0.00 | 1.09 | 0.00 | 92 | 1009.6 |
| 20260503011005 | 11 | 252 | 1.6 | 4.8 | 0.00 | 1.09 | 0.00 | 93 | 1009.7 |
| 20260503010504 | 11 | 267 | 0.0 | 1.6 | 0.00 | 1.09 | 0.00 | 93 | 1009.7 |
| 20260503010005 | 11 | 267 | 0.0 | 3.2 | 0.00 | 1.09 | 0.00 | 93 | 1009.7 |
| 20260503005004 | 11 | 270 | 4.8 | 11.3 | 0.00 | 1.09 | 0.00 | 93 | 1009.7 |
| 20260503004504 | 11 | 257 | 3.2 | 4.8 | 0.00 | 1.09 | 0.00 | 92 | 1009.7 |
| 20260503004004 | 11 | 265 | 4.8 | 11.3 | 0.00 | 1.09 | 0.00 | 92 | 1009.7 |
| 20260503003504 | 11 | 241 | 3.2 | 9.7 | 0.00 | 1.09 | 0.00 | 92 | 1009.9 |
| 20260503003004 | 11 | 238 | 3.2 | 4.8 | 0.00 | 1.09 | 0.00 | 92 | 1010.0 |
| 20260503002503 | 11 | 238 | 3.2 | 4.8 | 0.00 | 1.09 | 0.00 | 92 | 1010.0 |
| 20260503002005 | 11 | 238 | 1.6 | 4.8 | 0.00 | 1.09 | 0.00 | 92 | 1010.0 |
| 20260503001503 | 11 | 238 | 3.2 | 4.8 | 0.00 | 1.09 | 0.00 | 92 | 1010.0 |
| 20260503001003 | 11 | 236 | 4.8 | 8.0 | 0.00 | 1.09 | 0.00 | 92 | 1010.1 |
| 20260503000504 | 11 | 240 | 3.2 | 4.8 | 0.00 | 1.09 | 0.00 | 92 | 1010.1 |
| 20260502235504 | 10 | 238 | 0.0 | 0.0 | 0.00 | 1.09 | 0.00 | 92 | 1010.1 |
| 20260502235004 | 11 | 238 | 0.0 | 0.0 | 0.00 | 1.09 | 0.00 | 92 | 1010.0 |
| 20260502234004 | 11 | 238 | 0.0 | 0.0 | 0.00 | 1.09 | 0.00 | 92 | 1010.2 |
| 20260502233505 | 11 | 238 | 0.0 | 0.0 | 0.00 | 1.09 | 0.00 | 92 | 1010.3 |
| 20260502233004 | 11 | 238 | 0.0 | 0.0 | 0.00 | 1.09 | 0.00 | 92 | 1010.3 |
| 20260502232504 | 11 | 238 | 0.0 | 0.0 | 0.00 | 1.09 | 0.00 | 92 | 1010.2 |
| 20260502232005 | 11 | 238 | 0.0 | 0.0 | 0.00 | 1.09 | 0.00 | 92 | 1010.3 |
| 20260502231504 | 11 | 238 | 0.0 | 0.0 | 0.00 | 1.09 | 0.00 | 92 | 1010.3 |
| 20260502231004 | 11 | 238 | 0.0 | 0.0 | 0.00 | 1.09 | 0.00 | 92 | 1010.3 |
| 20260502230504 | 11 | 238 | 0.0 | 0.0 | 0.00 | 1.09 | 0.00 | 92 | 1010.4 |
| 20260502230004 | 11 | 238 | 0.0 | 4.8 | 0.00 | 1.09 | 0.00 | 92 | 1010.4 |
| 20260502225504 | 11 | 242 | 3.2 | 4.8 | 0.00 | 1.09 | 1.09 | 92 | 1010.5 |
| 20260502225004 | 11 | 242 | 3.2 | 4.8 | 0.00 | 1.09 | 1.09 | 92 | 1010.6 |
| 20260502224004 | 11 | 204 | 3.2 | 4.8 | 0.00 | 1.09 | 1.09 | 92 | 1010.6 |
| 20260502223004 | 11 | 182 | 3.2 | 8.0 | 0.00 | 1.09 | 1.09 | 92 | 1010.6 |
| 20260502222504 | 11 | 149 | 0.0 | 4.8 | 0.00 | 1.09 | 1.09 | 92 | 1010.6 |
| 20260502222003 | 11 | 140 | 0.0 | 0.0 | 0.00 | 1.09 | 1.09 | 92 | 1010.6 |
| 20260502221503 | 11 | 140 | 0.0 | 0.0 | 0.00 | 1.09 | 1.09 | 92 | 1010.5 |
| 20260502221003 | 11 | 140 | 0.0 | 0.0 | 0.00 | 1.09 | 1.09 | 92 | 1010.5 |
| 20260502215504 | 11 | 140 | 0.0 | 0.0 | 0.00 | 1.09 | 1.09 | 91 | 1010.5 |
| 20260502215004 | 11 | 140 | 0.0 | 0.0 | 0.00 | 1.09 | 1.09 | 91 | 1010.5 |
| 20260502214504 | 11 | 140 | 0.0 | 0.0 | 0.00 | 1.09 | 1.09 | 91 | 1010.5 |
| 20260502212503 | 11 | 27 | 0.0 | 0.0 | 0.00 | 1.09 | 1.09 | 90 | 1010.4 |
| 20260502211503 | 11 | 27 | 0.0 | 0.0 | 0.00 | 1.09 | 1.09 | 90 | 1010.3 |
| 20260502211004 | 11 | 27 | 0.0 | 0.0 | 0.00 | 1.09 | 1.09 | 90 | 1010.4 |
| 20260502210504 | 11 | 27 | 0.0 | 0.0 | 0.00 | 1.09 | 1.09 | 91 | 1010.5 |
| 20260502210004 | 11 | 27 | 0.0 | 0.0 | 0.00 | 1.09 | 1.09 | 91 | 1010.5 |
| 20260502205504 | 11 | 27 | 0.0 | 0.0 | 0.00 | 1.09 | 1.09 | 91 | 1010.5 |
| 20260502205004 | 11 | 27 | 0.0 | 0.0 | 0.00 | 1.09 | 1.09 | 91 | 1010.6 |
| 20260502204503 | 11 | 26 | 0.0 | 0.0 | 0.00 | 1.09 | 1.09 | 91 | 1010.6 |
| 20260502204004 | 11 | 25 | 0.0 | 1.6 | 0.03 | 1.09 | 1.09 | 91 | 1010.6 |
| 20260502203503 | 11 | 25 | 0.0 | 3.2 | 0.03 | 1.09 | 1.09 | 90 | 1010.7 |
| 20260502203003 | 11 | 25 | 0.0 | 0.0 | 0.03 | 1.09 | 1.09 | 90 | 1010.8 |
| 20260502202503 | 11 | 25 | 0.0 | 1.6 | 0.03 | 1.09 | 1.09 | 90 | 1010.8 |
| 20260502202003 | 11 | 25 | 0.0 | 0.0 | 0.03 | 1.09 | 1.09 | 90 | 1010.7 |
| 20260502201505 | 11 | 25 | 0.0 | 0.0 | 0.03 | 1.09 | 1.09 | 90 | 1010.7 |
| 20260502201004 | 11 | 25 | 0.0 | 0.0 | 0.03 | 1.09 | 1.09 | 90 | 1010.7 |
| 20260502200503 | 11 | 25 | 0.0 | 0.0 | 0.03 | 1.09 | 1.09 | 90 | 1010.7 |
| 20260502200004 | 11 | 25 | 0.0 | 1.6 | 0.03 | 1.09 | 1.09 | 90 | 1010.7 |
| 20260502195504 | 11 | 25 | 1.6 | 3.2 | 0.05 | 1.09 | 1.09 | 90 | 1010.8 |
| 20260502194503 | 11 | 24 | 1.6 | 3.2 | 0.05 | 1.09 | 1.09 | 90 | 1010.7 |
| 20260502194004 | 11 | 23 | 1.6 | 3.2 | 0.05 | 1.07 | 1.07 | 90 | 1010.7 |
| 20260502193504 | 11 | 17 | 1.6 | 3.2 | 0.05 | 1.07 | 1.07 | 90 | 1010.7 |
| 20260502193004 | 11 | 0 | 0.0 | 1.6 | 0.05 | 1.07 | 1.07 | 90 | 1010.7 |
| 20260502192503 | 11 | 355 | 1.6 | 3.2 | 0.05 | 1.07 | 1.07 | 89 | 1010.6 |
| 20260502192004 | 11 | 342 | 0.0 | 0.0 | 0.08 | 1.07 | 1.07 | 89 | 1010.6 |
| 20260502191504 | 11 | 338 | 0.0 | 0.0 | 0.08 | 1.07 | 1.07 | 89 | 1010.6 |
| 20260502191004 | 11 | 332 | 0.0 | 0.0 | 0.08 | 1.07 | 1.07 | 89 | 1010.7 |
| 20260502190503 | 11 | 332 | 0.0 | 3.2 | 0.10 | 1.07 | 1.07 | 89 | 1010.7 |
| 20260502190004 | 11 | 333 | 0.0 | 3.2 | 0.10 | 1.07 | 1.07 | 89 | 1010.7 |
| 20260502185503 | 11 | 333 | 0.0 | 0.0 | 0.10 | 1.04 | 1.04 | 89 | 1010.8 |
| 20260502185004 | 11 | 333 | 0.0 | 1.6 | 0.10 | 1.04 | 1.04 | 89 | 1010.8 |
| 20260502184505 | 11 | 333 | 0.0 | 0.0 | 0.08 | 1.02 | 1.02 | 89 | 1010.8 |
| 20260502184004 | 12 | 333 | 0.0 | 0.0 | 0.08 | 1.02 | 1.02 | 89 | 1010.8 |
| 20260502183504 | 12 | 333 | 0.0 | 3.2 | 0.08 | 1.02 | 1.02 | 89 | 1010.9 |
| 20260502183004 | 12 | 333 | 1.6 | 3.2 | 0.10 | 1.02 | 1.02 | 89 | 1010.9 |
| 20260502182504 | 12 | 331 | 1.6 | 4.8 | 0.10 | 0.99 | 0.99 | 89 | 1010.9 |
| 20260502182004 | 12 | 331 | 1.6 | 4.8 | 0.08 | 0.99 | 0.99 | 89 | 1010.9 |
| 20260502181004 | 12 | 331 | 1.6 | 3.2 | 0.13 | 0.99 | 0.99 | 89 | 1011.1 |
| 20260502180504 | 12 | 331 | 1.6 | 3.2 | 0.13 | 0.97 | 0.97 | 89 | 1011.1 |
| 20260502170503 | 12 | 48 | 1.6 | 4.8 | 0.43 | 0.84 | 0.84 | 88 | 1011.5 |
| 20260502164004 | 12 | 177 | 3.2 | 4.8 | 0.48 | 0.71 | 0.71 | 86 | 1012.0 |
| 20260502163004 | 12 | 136 | 1.6 | 3.2 | 0.46 | 0.61 | 0.61 | 85 | 1012.1 |
| 20260502162503 | 12 | 136 | 0.0 | 0.0 | 0.46 | 0.58 | 0.58 | 85 | 1012.2 |
| 20260502162004 | 12 | 136 | 0.0 | 0.0 | 0.46 | 0.56 | 0.56 | 84 | 1012.1 |
| 20260502161504 | 12 | 134 | 0.0 | 1.6 | 0.46 | 0.51 | 0.51 | 84 | 1012.2 |
| 20260502161004 | 13 | 134 | 0.0 | 1.6 | 0.43 | 0.48 | 0.48 | 83 | 1012.2 |
| 20260502160504 | 13 | 134 | 1.6 | 1.6 | 0.41 | 0.43 | 0.43 | 82 | 1012.4 |
| 20260502151504 | 15 | 117 | 1.6 | 4.8 | 0.05 | 0.05 | 0.05 | 74 | 1012.8 |
| 20260502151004 | 15 | 117 | 1.6 | 3.2 | 0.05 | 0.05 | 0.05 | 73 | 1012.7 |
| 20260502150503 | 15 | 117 | 0.0 | 1.6 | 0.03 | 0.03 | 0.03 | 70 | 1012.7 |
| 20260502123503 | 18 | 64 | 3.2 | 4.8 | 0.00 | 0.00 | 0.00 | 61 | 1014.1 |
| 20260502123004 | 18 | 215 | 1.6 | 4.8 | 0.00 | 0.00 | 0.00 | 61 | 1014.2 |
| 20260502122004 | 18 | 228 | 3.2 | 8.0 | 0.00 | 0.00 | 0.00 | 61 | 1014.4 |
| 20260502121504 | 18 | 228 | 3.2 | 9.7 | 0.00 | 0.00 | 0.00 | 60 | 1014.5 |
| 20260502120503 | 18 | 281 | 4.8 | 14.5 | 0.00 | 0.00 | 0.00 | 61 | 1014.6 |
| 20260502115003 | 18 | 123 | 3.2 | 4.8 | 0.00 | 0.00 | 0.00 | 62 | 1014.8 |
| 20260502114004 | 17 | 114 | 4.8 | 11.3 | 0.00 | 0.00 | 0.00 | 62 | 1014.9 |
| 20260502113503 | 17 | 125 | 4.8 | 11.3 | 0.00 | 0.00 | 0.00 | 63 | 1015.0 |
| 20260502113004 | 17 | 146 | 6.4 | 11.3 | 0.00 | 0.00 | 0.00 | 64 | 1015.1 |
| 20260502112504 | 17 | 95 | 3.2 | 4.8 | 0.00 | 0.00 | 0.00 | 65 | 1015.2 |
| 20260502112003 | 16 | 99 | 8.0 | 14.5 | 0.00 | 0.00 | 0.00 | 68 | 1015.4 |
| 20260502111504 | 16 | 119 | 1.6 | 9.7 | 0.00 | 0.00 | 0.00 | 68 | 1015.5 |
| 20260502111004 | 16 | 142 | 3.2 | 9.7 | 0.00 | 0.00 | 0.00 | 68 | 1015.7 |
| 20260502110504 | 16 | 163 | 4.8 | 11.3 | 0.00 | 0.00 | 0.00 | 66 | 1015.7 |
| 20260502110004 | 16 | 130 | 6.4 | 12.9 | 0.00 | 0.00 | 0.00 | 68 | 1015.8 |
| 20260502105503 | 16 | 186 | 4.8 | 14.5 | 0.00 | 0.00 | 0.00 | 69 | 1015.8 |
| 20260502105003 | 15 | 112 | 6.4 | 16.1 | 0.00 | 0.00 | 0.00 | 69 | 1015.9 |
| 20260502104503 | 15 | 202 | 4.8 | 9.7 | 0.00 | 0.00 | 0.00 | 68 | 1016.0 |
| 20260502104004 | 16 | 214 | 3.2 | 4.8 | 0.00 | 0.00 | 0.00 | 67 | 1015.9 |
| 20260502103504 | 16 | 215 | 3.2 | 8.0 | 0.00 | 0.00 | 0.00 | 66 | 1015.9 |
| 20260502103003 | 16 | 185 | 3.2 | 4.8 | 0.00 | 0.00 | 0.00 | 67 | 1016.0 |
| 20260502102504 | 16 | 181 | 6.4 | 11.3 | 0.00 | 0.00 | 0.00 | 67 | 1016.0 |
| 20260502102005 | 16 | 134 | 3.2 | 11.3 | 0.00 | 0.00 | 0.00 | 72 | 1016.0 |
| 20260502101504 | 15 | 114 | 8.0 | 12.9 | 0.00 | 0.00 | 0.00 | 70 | 1016.0 |
| 20260502101005 | 15 | 102 | 4.8 | 9.7 | 0.00 | 0.00 | 0.00 | 72 | 1016.1 |
| 20260502100504 | 15 | 134 | 6.4 | 11.3 | 0.00 | 0.00 | 0.00 | 73 | 1016.2 |
| 20260502091004 | 13 | 231 | 1.6 | 3.2 | 0.00 | 0.00 | 0.00 | 81 | 1016.4 |
| 20260502071003 | 9 | 233 | 0.0 | 1.6 | 0.00 | 0.00 | 0.00 | 91 | 1017.2 |
| 20260502070504 | 9 | 233 | 0.0 | 1.6 | 0.00 | 0.00 | 0.00 | 92 | 1017.2 |
| 20260502070004 | 8 | 201 | 0.0 | 1.6 | 0.00 | 0.00 | 0.00 | 93 | 1017.2 |
| 20260502065503 | 8 | 229 | 0.0 | 0.0 | 0.00 | 0.00 | 0.00 | 93 | 1017.2 |
| 20260502065005 | 8 | 229 | 0.0 | 0.0 | 0.00 | 0.00 | 0.00 | 93 | 1017.2 |
| 20260502064504 | 8 | 229 | 0.0 | 0.0 | 0.00 | 0.00 | 0.00 | 93 | 1017.3 |
| 20260502064003 | 8 | 229 | 0.0 | 0.0 | 0.00 | 0.00 | 0.00 | 94 | 1017.3 |
| 20260502063504 | 7 | 229 | 0.0 | 0.0 | 0.00 | 0.00 | 0.00 | 94 | 1017.3 |
| 20260502063004 | 7 | 229 | 0.0 | 0.0 | 0.00 | 0.00 | 0.00 | 94 | 1017.4 |
| 20260502062504 | 7 | 229 | 0.0 | 0.0 | 0.00 | 0.00 | 0.00 | 94 | 1017.4 |
| 20260502062004 | 7 | 229 | 0.0 | 0.0 | 0.00 | 0.00 | 0.00 | 94 | 1017.5 |
| 20260502061504 | 7 | 229 | 0.0 | 0.0 | 0.00 | 0.00 | 0.00 | 94 | 1017.5 |
| 20260502061004 | 6 | 229 | 0.0 | 0.0 | 0.00 | 0.00 | 0.00 | 94 | 1017.6 |
| 20260502060503 | 6 | 229 | 0.0 | 0.0 | 0.00 | 0.00 | 0.00 | 94 | 1017.6 |
| 20260502060004 | 6 | 229 | 0.0 | 0.0 | 0.00 | 0.00 | 0.00 | 93 | 1017.6 |
| 20260502055004 | 6 | 229 | 0.0 | 0.0 | 0.00 | 0.00 | 0.00 | 93 | 1017.5 |
| 20260502054503 | 6 | 229 | 0.0 | 0.0 | 0.00 | 0.00 | 0.00 | 92 | 1017.6 |
| 20260502054004 | 5 | 229 | 0.0 | 0.0 | 0.00 | 0.00 | 0.00 | 92 | 1017.6 |
| 20260502053504 | 5 | 229 | 0.0 | 0.0 | 0.00 | 0.00 | 0.00 | 92 | 1017.6 |
| 20260502053004 | 5 | 229 | 0.0 | 0.0 | 0.00 | 0.00 | 0.00 | 92 | 1017.6 |
| 20260502052504 | 5 | 229 | 0.0 | 0.0 | 0.00 | 0.00 | 0.00 | 91 | 1017.5 |
| 20260502052004 | 5 | 229 | 0.0 | 0.0 | 0.00 | 0.00 | 0.00 | 91 | 1017.5 |
| 20260502051504 | 5 | 229 | 0.0 | 0.0 | 0.00 | 0.00 | 0.00 | 91 | 1017.4 |
| 20260502051004 | 5 | 229 | 0.0 | 0.0 | 0.00 | 0.00 | 0.00 | 91 | 1017.4 |
| 20260502050504 | 5 | 229 | 0.0 | 0.0 | 0.00 | 0.00 | 0.00 | 91 | 1017.3 |
| 20260502050003 | 5 | 226 | 0.0 | 0.0 | 0.00 | 0.00 | 0.00 | 91 | 1017.2 |
| 20260502045504 | 5 | 226 | 0.0 | 0.0 | 0.00 | 0.00 | 0.00 | 91 | 1017.2 |